{"data":{"norad_id":67619,"epoch":"2026-09-19T21:41:48.738048Z","epoch_age_seconds":121136,"freshness":"FRESH","line1":"1 67619U 26020C   26262.90403632  .00009572  00000+0  35679-3 0  9999","line2":"2 67619  43.0003 123.1848 0001110 284.6645  75.4084 15.27591122 35816","mean_motion":15.27591122,"eccentricity":0.000111,"inclination_deg":43.0003,"raan_deg":123.1848,"arg_perigee_deg":284.6645,"mean_anomaly_deg":75.4084,"bstar":0.00035679,"rev_number":3581,"period_min":94.26606238158,"perigee_km":482.25420501258,"apogee_km":483.77738093262,"semimajor_km":6861.1527929726,"source":"CELESTRAK","updated_at":"2026-09-20T09:00:43.610093Z"}}